Location: Boiro
(42.6475°N, 8.8834°W)
Time: 02:23:09
(UTC+01:00)

Tiros 1 despin weight - Pass Details

Date: 06 December 2021
Orbit: 592 x 641 km, 48.2° (Epoch: 23 January)

Event Time Altitude Azimuth Distance (km) Brightness Sun altitude
Rises 13:28:38 0° 226° (SW) 2,843 ? 24.8°
Reaches altitude 10° 13:30:59 10° 222° (SW) 1,936 ? 24.8°
Maximum altitude 13:35:17 51° 146° (SSE) 749 ? 24.8°
Drops below altitude 10° 13:39:33 10° 71° (ENE) 1,926 ? 24.7°
Sets 13:41:53 0° 66° (ENE) 2,827 ? 24.7°
